Simultaneous Nadir Overpasses (SNOs) Predictions

Prediction of SNOs between FY3D and AQUA Satellite Orbit:

Table of predicted SNOs for the next 14.0 days since TLE Epoch: 7/24/2021
Index Date (FY3D) Time (FY3D) Lat,Lon (FY3D) SZA (FY3D ) Date (AQUA) Time (AQUA) Lat,Lon (AQUA) SZA (AQUA ) Distance(km) Time Diff (sec)
1 07/25/2021 16:52:06 57.39, -62.20 38.35 07/25/2021 16:52:26 57.39, -62.21 38.36 0.73 20
2 07/25/2021 17:40:24 -49.15, 109.39 148.75 07/25/2021 17:39:30 -49.18, 109.42 148.78 3.57 54
3 07/28/2021 09:08:57 59.23, 52.54 40.63 07/28/2021 09:09:27 59.23, 52.55 40.64 0.31 30
4 07/28/2021 09:57:03 -50.33,-135.19 147.18 07/28/2021 09:56:19 -50.33,-135.18 147.23 0.85 44
5 07/31/2021 01:25:44 60.84, 167.34 42.77 07/31/2021 01:26:24 60.84, 167.36 42.78 1.08 40
6 07/31/2021 02:13:53 -52.13, -20.10 145.02 07/31/2021 02:13:19 -52.13, -20.10 145.06 0.10 34
7 08/02/2021 17:42:25 62.17, -77.75 44.69 08/02/2021 17:43:15 62.16, -77.72 44.70 1.57 50
8 08/02/2021 18:30:40 -53.82, 94.99 142.89 08/02/2021 18:30:16 -53.82, 94.98 142.91 0.80 24
9 08/05/2021 09:59:04 63.32, 37.22 46.49 08/05/2021 10:00:04 63.32, 37.25 46.50 1.73 60



Historial Predications of SNOs between FY3D and AQUA
